Skip Page Navigation
NASA JPL Caltech
NASA Logo - Jet Propulsion Laboratory + View the NASA Portal
+ Center for Near-Earth Object Studies
JPL Home Earth Solar System Stars & Galaxies Technology
JPL Solar System Dynamics
BODIES ORBITS EPHEMERIDES TOOLS PHYSICAL DATA DISCOVERY FAQ SITE MAP
JPL Small-Body Database Browser
Search: [ help ]  
(2019 YV5)
Classification: Apollo [NEO]          SPK-ID: 3968767
Ephemeris | Orbit Diagram | Orbital Elements | Mission Design | Physical Parameters | Close-Approach Data ]

[ show orbit diagram ]
Orbital Elements at Epoch 2458849.5 (2020-Jan-01.0) TDB
Reference: JPL 2 (heliocentric ecliptic J2000)
 Element Value Uncertainty (1-sigma)   Units 
e .6531669821518559 0.001562  
a 2.479948388410989 0.01057 au
q .8601279836602246 0.00020799 au
i 6.47521745715863 0.010716 deg
node 312.6701543686685 0.016808 deg
peri 203.7031117677759 0.014749 deg
M 349.4783853892072 0.071691 deg
tp 2458891.190996928107
(2020-Feb-11.69099693)
0.017534 TDB
period 1426.469173155513
3.91
9.1198
0.02497
d
yr
n .2523713843767397 0.0016135 deg/d
Q 4.099768793161752 0.017474 au
  Orbit Determination Parameters
   # obs. used (total)      28  
   data-arc span      3 days  
   first obs. used      2019-12-31  
   last obs. used      2020-01-03  
   planetary ephem.      DE431  
   SB-pert. ephem.      SB431-N16  
   condition code      8  
   norm. resid. RMS      .35362  
   source      ORB  
   producer      Otto Matic  
   solution date      2020-Jan-03 05:37:18  

Additional Information
 Earth MOID = .0413687 au 
 Jupiter MOID = .946416 au 
 T_jup = 3.137 
[ hide covariance matrix ]
Orbit Covariance (6×6)
  e q tp node peri i
e 2.439890538510399E-6 -3.244773430071277E-7 -2.738212767202398E-5 1.523546594951736E-5 -5.520757396230127E-6 1.653013908409282E-5
q -3.244773430071277E-7 4.32613102815385E-8 3.641675447786546E-6 -1.892163924231051E-6 5.918241203942308E-7 -2.214882798674785E-6
tp -2.738212767202398E-5 3.641675447786546E-6 .0003074462055218472 -.0001690024236156118 6.011367988923747E-5 -.0001857411437019754
node 1.523546594951736E-5 -1.892163924231051E-6 -.0001690024236156118 .0002825190292584514 -.0002302838294384994 8.017219240812931E-5
peri -5.520757396230127E-6 5.918241203942308E-7 6.011367988923747E-5 -.0002302838294384994 .0002175260054695549 -1.329740188664099E-5
i 1.653013908409282E-5 -2.214882798674785E-6 -.0001857411437019754 8.017219240812931E-5 -1.329740188664099E-5 .0001148308718821587

Ephemeris | Orbit Diagram | Orbital Elements | Mission Design | Physical Parameters | Close-Approach Data ]

Physical Parameter Table
Parameter Symbol Value Units Sigma Reference Notes
absolute magnitude H 24.4   .54933 E2020A42 autocmod 2.8

[ hide close-approach data ]
Close-Approach Data   ...sorted by Date/Time (TDB)
Date/Time (TDB) Time Uncertainty
(days_HH:MM)
Body Nominal Distance (au) Minimum Distance (au) Maximum Distance (au) V-relative (km/s) V-infinity (km/s) JD (TDB) Time Uncertainty (minutes) Semi-major axis (km) Semi-minor axis (km) range-LOV angle (deg) N-sigma BP Orbit Ref. Reference Modified
1915-Jan-19 21:38 5_22:42 Jupiter 1.26240664550227 1.18259979226092 1.34179201382934 6.28745504683968 6.17981989157266 2420517.401303527 8562.15611455108 3796608.70096093 22889.1724003133 -0.788548584770942 29.1539683844158 T 2 CATAB v2.0f-lin.ifort 2020-Jan-03 05:37:21 2020-Jan-03 05:37
2020-Jan-11 13:37 00:05 Earth 0.0430279358182858 0.0427644404184399 0.0432914291156796 13.9380966426353 13.9336531178583 2458860.067475859 5.01718990952341 13130.8323187685 66.2864407857767 -0.0763462734571702 349.742387100791 T 2 CATAB v2.0f-lin.ifort 2020-Jan-03 05:37:21 2020-Jan-03 05:37
2021-Dec-14 10:26 4_21:02 Jupiter 0.987739663859913 0.955880408453387 1.02040549322614 5.49037849738581 5.33190244179903 2459562.934585849 7022.47599141823 2161290.09398707 18402.0618285627 34.9599146853967 5798.409496856 T 2 CATAB v2.0f-lin.ifort 2020-Jan-03 05:37:21 2020-Jan-03 05:37
Ephemeris | Orbit Diagram | Orbital Elements | Mission Design | Physical Parameters | Close-Approach Data ]
ABOUT SSD CREDITS/AWARDS PRIVACY/COPYRIGHT GLOSSARY LINKS
FirstGov 2020-Sep-18 15:16 UT
(server date/time)  
NASA Home Page
Site Manager:   Ryan S. Park
Webmaster  Alan B. Chamberlin